This demonstration page uses our WeatherBlox Daily Observations layout. Learn more.

Left ArrowRight Arrow

31.84235, -102.49876

Hourly Observations for May 23, 2022

Temp ( °F °C ) Dew Point ( °F °C ) Humidity (%) Winds ( mph kmh ) Pressure ( in mb ) Visibility ( mi km ) Precip ( " mm )
12:53 am 00:53 Mostly Clear 66 18.9 43 6.1 43 43 E 7 11 29.99 1016 10 16 0.00 0.00
1:53 am 01:53 Partly Cloudy 65 18.3 43 6.1 45 45 NE 7 11 29.98 1015 10 16 0.00 0.00
2:53 am 02:53 Clear 63 17.2 43 6.1 48 48 NE 9 15 29.95 1014 10 16 0.00 0.00
3:53 am 03:53 Partly Cloudy 64 17.8 43 6.1 46 46 NE 8 13 29.95 1014 10 16 0.00 0.00
4:53 am 04:53 Cloudy 69 20.6 50 10 51 51 ESE 8 13 29.95 1014 10 16 0.00 0.00
5:53 am 05:53 Cloudy 69 20.6 51 10.6 53 53 E 5 7 29.93 1014 10 16 0.00 0.00
6:45 am 06:45 Cloudy 69 20.6 52 11.1 55 55 E 9 15 29.91 1013 10 16 0.00 0.00
6:53 am 06:53 Cloudy 69 20.6 52 11.1 55 55 E 10 17 29.92 1013 10 16 0.00 0.00
7:10 am 07:10 Cloudy 68 20 53 11.7 59 59 E 10 17 29.92 1013 10 16 0.00 0.00
7:36 am 07:36 Partly Cloudy 68 20 53 11.7 59 59 ESE 12 19 29.91 1013 10 16 0.00 0.00
7:44 am 07:44 Mostly Cloudy 69 20.6 53 11.7 57 57 ESE 14 22 29.90 1013 10 16 0.00 0.00
7:53 am 07:53 Mostly Cloudy 69 20.6 53 11.7 57 57 ESE 14 22 29.91 1013 10 16 0.00 0.00
8:09 am 08:09 Partly Cloudy 69 20.6 54 12.2 59 59 SE 10 17 29.89 1012 10 16 0.00 0.00
8:53 am 08:53 Partly Cloudy 71 21.7 57 13.9 61 61 SSE 16 26 29.90 1013 10 16 0.00 0.00
9:12 am 09:12 Mostly Cloudy 72 22.2 58 14.4 61 61 ESE 12 19 29.89 1012 10 16 0.00 0.00
9:53 am 09:53 Cloudy 72 22.2 61 16.1 68 68 SSE 18 30 29.91 1013 9 14 0.00 0.00
10:51 am 10:51 Mostly Cloudy 73 23 61 16 65 65 S 18 30 29.87 1011 10 16 0.00 0.00
10:53 am 10:53 Mostly Cloudy 75 23.9 60 15.6 60 60 S 16 26 29.90 1012 10 16 0.00 0.00
11:53 am 11:53 Mostly Cloudy 78 25.6 60 15.6 54 54 S 18 30 29.88 1012 10 16 0.00 0.00
12:53 pm 12:53 Mostly Cloudy 80 26.7 60 15.6 51 51 S 24 39 29.86 1011 9 14 0.00 0.00
1:53 pm 13:53 Mostly Cloudy 82 27.8 59 15 46 46 S 16 26 29.81 1010 9 14 0.00 0.00
2:53 pm 14:53 Mostly Sunny 84 28.9 56 13.3 38 38 SSW 21 33 29.78 1008 10 16 0.00 0.00
3:53 pm 15:53 Sunny 84 28.9 55 12.8 37 37 S 18 30 29.74 1007 10 16 0.00 0.00
4:53 pm 16:53 Sunny 82 27.8 57 13.9 42 42 S 21 33 29.71 1006 10 16 0.00 0.00
5:53 pm 17:53 Sunny 81 27.2 54 12.2 39 39 S 22 35 29.71 1006 10 16 0.00 0.00
6:53 pm 18:53 Sunny 81 27.2 56 13.3 42 42 SSE 20 31 29.67 1005 10 16 0.00 0.00
7:53 pm 19:53 Sunny 81 27.2 54 12.2 39 39 SSE 18 30 29.65 1004 10 16 0.00 0.00
8:53 pm 20:53 Clear 79 26.1 56 13.3 45 45 S 23 37 29.67 1005 10 16 0.00 0.00
9:53 pm 21:53 Clear 74 23.3 61 16.1 64 64 SSE 25 41 29.70 1006 9 14 0.00 0.00
10:53 pm 22:53 Clear 72 22.2 61 16.1 68 68 SSE 25 41 29.71 1006 10 16 0.00 0.00
11:53 pm 23:53 Clear 70 21.1 60 15.6 71 71 SSE 16 26 29.70 1006 10 16 0.00 0.00

Powered by AerisWeather